This demonstration page uses our WeatherBlox Daily Observations layout. Learn more.

Left ArrowRight Arrow

Hourly Observations for June 22, 2016

Temp ( °F °C ) Dew Point ( °F °C ) Humidity (%) Winds ( mph kmh ) Pressure ( in mb ) Visibility ( mi km ) Precip ( " mm )
12:53 am 00:53 Clear 73 22.8 58 14.4 59 59 N 3 6 29.86 1011 10 16 0.00 0.00
1:53 am 01:53 Clear 72 22.2 56 13.3 57 57 NNW 5 7 29.86 1011 10 16 0.00 0.00
2:53 am 02:53 Clear 72 22.2 56 13.3 57 57 N 5 7 29.86 1011 10 16 0.00 0.00
3:53 am 03:53 Clear 68 20 57 13.9 68 68 NW 3 6 29.86 1011 10 16 0.00 0.00
4:53 am 04:53 Clear 66 18.9 59 15 78 78 Calm 29.86 1011 10 16 0.00 0.00
5:53 am 05:53 Sunny 67 19.4 57 13.9 71 71 NNE 3 6 29.87 1011 10 16 0.00 0.00
6:53 am 06:53 Sunny 70 21.1 58 14.4 66 66 Calm 29.88 1012 10 16 0.00 0.00
7:53 am 07:53 Sunny 74 23.3 56 13.3 54 54 Calm 29.88 1012 10 16 0.00 0.00
8:53 am 08:53 Sunny 79 26.1 56 13.3 45 45 WNW 3 6 29.89 1012 10 16 0.00 0.00
9:53 am 09:53 Sunny 84 28.9 52 11.1 33 33 NNW 5 7 29.88 1012 10 16 0.00 0.00
10:53 am 10:53 Sunny 87 30.6 49 9.4 27 27 VRB 5 7 29.88 1012 10 16 0.00 0.00
11:53 am 11:53 Sunny 89 31.7 48 8.9 24 24 Calm 29.87 1012 10 16 0.00 0.00
12:53 pm 12:53 Sunny 92 33.3 51 10.6 25 25 undefined N/A 29.85 1011 10 16 0.00 0.00
1:53 pm 13:53 Sunny 93 33.9 48 8.9 21 21 S 7 11 29.84 1010 10 16 0.00 0.00
2:53 pm 14:53 Sunny 96 35.6 41 5 15 15 SSE 10 17 29.83 1010 10 16 0.00 0.00
3:53 pm 15:53 Sunny 96 35.6 43 6.1 16 16 SSE 8 13 29.81 1010 10 16 0.00 0.00
4:53 pm 16:53 Sunny 96 35.6 42 5.6 15 15 SSE 14 22 29.80 1009 10 16 0.00 0.00
5:53 pm 17:53 Sunny 95 35 46 7.8 19 19 SSE 14 22 29.79 1009 10 16 0.00 0.00
6:53 pm 18:53 Sunny 94 34.4 43 6.1 17 17 S 10 17 29.79 1009 10 16 0.00 0.00
7:53 pm 19:53 Sunny 92 33.3 45 7.2 20 20 SW 6 9 29.80 1009 10 16 0.00 0.00
8:53 pm 20:53 Clear 86 30 50 10 29 29 N 6 9 29.81 1010 10 16 0.00 0.00
9:53 pm 21:53 Clear 83 28.3 47 8.3 28 28 Calm 29.83 1010 10 16 0.00 0.00
10:53 pm 22:53 Clear 80 26.7 37 2.8 21 21 Calm 29.85 1011 10 16 0.00 0.00
11:53 pm 23:53 Clear 76 24.4 45 7.2 33 33 S 3 6 29.86 1011 10 16 0.00 0.00

Powered by AerisWeather